Year,Month,Day,Hour,Minute,Value (Times are PST for temperature in C)
2014,09,15,00,00,15.20
2014,09,15,00,01,15.20
2014,09,15,00,02,15.20
2014,09,15,00,03,15.20
2014,09,15,00,04,15.20
2014,09,15,00,05,15.10
2014,09,15,00,06,15.10
2014,09,15,00,07,15.10
2014,09,15,00,08,15.10
2014,09,15,00,09,15.10
2014,09,15,00,10,15.10
2014,09,15,00,11,15.10
2014,09,15,00,12,15.10
2014,09,15,00,13,15.10
2014,09,15,00,16,15.10
2014,09,15,00,17,15.10
2014,09,15,00,18,15.10
2014,09,15,00,19,15.10
2014,09,15,00,20,15.10
2014,09,15,00,21,15.10
2014,09,15,00,22,15.10
2014,09,15,00,23,15.10
2014,09,15,00,24,15.10
2014,09,15,00,25,15.10
2014,09,15,00,26,15.10
2014,09,15,00,27,15.10
2014,09,15,00,28,15.10
2014,09,15,00,29,15.10
2014,09,15,00,30,15.10
2014,09,15,00,31,15.10
2014,09,15,00,32,15.10
2014,09,15,00,33,15.10
2014,09,15,00,34,15.10
2014,09,15,00,35,15.10
2014,09,15,00,36,15.10
2014,09,15,00,37,15.10
2014,09,15,00,38,15.10
2014,09,15,00,39,15.10
2014,09,15,00,40,15.10
2014,09,15,00,41,15.10
2014,09,15,00,42,15.00
2014,09,15,00,43,15.00
2014,09,15,00,44,15.00
2014,09,15,00,45,15.00
2014,09,15,00,46,15.00
2014,09,15,00,47,15.00
2014,09,15,00,48,15.00
2014,09,15,00,49,15.00
2014,09,15,00,50,14.90
2014,09,15,00,51,14.90
2014,09,15,00,52,14.90
2014,09,15,00,53,14.90
2014,09,15,00,54,14.80
2014,09,15,00,55,14.80
2014,09,15,00,56,14.80
2014,09,15,00,57,14.80
2014,09,15,00,58,14.80
2014,09,15,00,59,14.80
2014,09,15,01,00,14.80
2014,09,15,01,01,14.80
2014,09,15,01,02,14.70
2014,09,15,01,03,14.70
2014,09,15,01,04,14.70
2014,09,15,01,05,14.70
2014,09,15,01,06,14.60
2014,09,15,01,07,14.60
2014,09,15,01,08,14.60
2014,09,15,01,09,14.50
2014,09,15,01,10,14.50
2014,09,15,01,11,14.50
2014,09,15,01,12,14.40
2014,09,15,01,13,14.40
2014,09,15,01,14,14.40
2014,09,15,01,15,14.30
2014,09,15,01,16,14.30
2014,09,15,01,17,14.20
2014,09,15,01,18,14.20
2014,09,15,01,19,14.20
2014,09,15,01,20,14.20
2014,09,15,01,21,14.20
2014,09,15,01,22,14.10
2014,09,15,01,23,14.10
2014,09,15,01,24,14.10
2014,09,15,01,25,14.00
2014,09,15,01,26,14.00
2014,09,15,01,27,14.00
2014,09,15,01,28,14.00
2014,09,15,01,29,14.00
2014,09,15,01,30,13.90
2014,09,15,01,31,13.90
2014,09,15,01,32,13.90
2014,09,15,01,33,13.90
2014,09,15,01,34,13.90
2014,09,15,01,35,13.90
2014,09,15,01,36,13.90
2014,09,15,01,37,13.90
2014,09,15,01,38,13.90
2014,09,15,01,39,13.90
2014,09,15,01,40,13.90
2014,09,15,01,41,13.90
2014,09,15,01,42,13.90
2014,09,15,01,43,13.90
2014,09,15,01,44,13.90
2014,09,15,01,45,14.00
2014,09,15,01,46,14.00
2014,09,15,01,47,14.00
2014,09,15,01,48,14.00
2014,09,15,01,49,14.00
2014,09,15,01,50,14.00
2014,09,15,01,51,14.00
2014,09,15,01,52,14.00
2014,09,15,01,53,14.00
2014,09,15,01,54,14.00
2014,09,15,01,55,14.00
2014,09,15,01,56,14.00
2014,09,15,01,57,14.00
2014,09,15,01,58,14.00
2014,09,15,01,59,14.00
2014,09,15,02,00,14.00
2014,09,15,02,01,14.00
2014,09,15,02,02,14.00
2014,09,15,02,03,14.00
2014,09,15,02,04,14.10
2014,09,15,02,05,14.10
2014,09,15,02,06,14.10
2014,09,15,02,07,14.10
2014,09,15,02,08,14.10
2014,09,15,02,09,14.10
2014,09,15,02,10,14.10
2014,09,15,02,11,14.10
2014,09,15,02,12,14.10
2014,09,15,02,13,14.10
2014,09,15,02,14,14.10
2014,09,15,02,15,14.10
2014,09,15,02,16,14.20
2014,09,15,02,17,14.20
2014,09,15,02,18,14.20
2014,09,15,02,19,14.20
2014,09,15,02,20,14.20
2014,09,15,02,21,14.20
2014,09,15,02,22,14.20
2014,09,15,02,23,14.20
2014,09,15,02,24,14.20
2014,09,15,02,25,14.20
2014,09,15,02,26,14.20
2014,09,15,02,27,14.20
2014,09,15,02,28,14.20
2014,09,15,02,29,14.20
2014,09,15,02,30,14.20
2014,09,15,02,31,14.20
2014,09,15,02,32,14.20
2014,09,15,02,33,14.20
2014,09,15,02,34,14.20
2014,09,15,02,35,14.30
2014,09,15,02,36,14.30
2014,09,15,02,37,14.30
2014,09,15,02,38,14.30
2014,09,15,02,39,14.30
2014,09,15,02,40,14.30
2014,09,15,02,41,14.30
2014,09,15,02,42,14.30
2014,09,15,02,43,14.30
2014,09,15,02,44,14.30
2014,09,15,02,45,14.30
2014,09,15,02,46,14.30
2014,09,15,02,47,14.30
2014,09,15,02,48,14.30
2014,09,15,02,49,14.30
2014,09,15,02,50,14.30
2014,09,15,02,51,14.30
2014,09,15,02,52,14.30
2014,09,15,02,53,14.30
2014,09,15,02,54,14.30
2014,09,15,02,55,14.30
2014,09,15,02,56,14.30
2014,09,15,02,57,14.30
2014,09,15,02,58,14.30
2014,09,15,02,59,14.30
2014,09,15,03,00,14.30
2014,09,15,03,01,14.30
2014,09,15,03,02,14.30
2014,09,15,03,03,14.30
2014,09,15,03,04,14.30
2014,09,15,03,05,14.30
2014,09,15,03,06,14.30
2014,09,15,03,07,14.30
2014,09,15,03,08,14.30
2014,09,15,03,09,14.30
2014,09,15,03,10,14.30
2014,09,15,03,11,14.30
2014,09,15,03,12,14.30
2014,09,15,03,13,14.30
2014,09,15,03,14,14.30
2014,09,15,03,15,14.30
2014,09,15,03,16,14.30
2014,09,15,03,17,14.30
2014,09,15,03,18,14.30
2014,09,15,03,19,14.30
2014,09,15,03,20,14.30
2014,09,15,03,21,14.30
2014,09,15,03,22,14.30
2014,09,15,03,23,14.20
2014,09,15,03,24,14.20
2014,09,15,03,25,14.20
2014,09,15,03,26,14.20
2014,09,15,03,27,14.20
2014,09,15,03,28,14.20
2014,09,15,03,29,14.20
2014,09,15,03,30,14.20
2014,09,15,03,31,14.20
2014,09,15,03,32,14.20
2014,09,15,03,33,14.20
2014,09,15,03,34,14.20
2014,09,15,03,35,14.20
2014,09,15,03,36,14.20
2014,09,15,03,37,14.30
2014,09,15,03,38,14.30
2014,09,15,03,39,14.30
2014,09,15,03,40,14.30
2014,09,15,03,41,14.30
2014,09,15,03,42,14.30
2014,09,15,03,43,14.30
2014,09,15,03,44,14.30
2014,09,15,03,45,14.30
2014,09,15,03,46,14.30
2014,09,15,03,47,14.30
2014,09,15,03,48,14.30
2014,09,15,03,49,14.30
2014,09,15,03,50,14.30
2014,09,15,03,51,14.30
2014,09,15,03,52,14.30
2014,09,15,03,53,14.30
2014,09,15,03,54,14.20
2014,09,15,03,55,14.20
2014,09,15,03,56,14.20
2014,09,15,03,57,14.20
2014,09,15,03,58,14.20
2014,09,15,03,59,14.20
2014,09,15,04,00,14.20
2014,09,15,04,01,14.20
2014,09,15,04,02,14.20
2014,09,15,04,03,14.20
2014,09,15,04,04,14.20
2014,09,15,04,05,14.20
2014,09,15,04,06,14.20
2014,09,15,04,07,14.20
2014,09,15,04,08,14.20
2014,09,15,04,09,14.20
2014,09,15,04,10,14.20
2014,09,15,04,11,14.20
2014,09,15,04,12,14.20
2014,09,15,04,13,14.20
2014,09,15,04,14,14.20
2014,09,15,04,15,14.20
2014,09,15,04,16,14.20
2014,09,15,04,17,14.20
2014,09,15,04,18,14.20
2014,09,15,04,19,14.20
2014,09,15,04,20,14.20
2014,09,15,04,21,14.20
2014,09,15,04,22,14.20
2014,09,15,04,23,14.20
2014,09,15,04,24,14.20
2014,09,15,04,25,14.20
2014,09,15,04,26,14.20
2014,09,15,04,27,14.20
2014,09,15,04,28,14.20
2014,09,15,04,29,14.10
2014,09,15,04,30,14.10
2014,09,15,04,31,14.10
2014,09,15,04,32,14.10
2014,09,15,04,33,14.10
2014,09,15,04,34,14.10
2014,09,15,04,35,14.10
2014,09,15,04,36,14.10
2014,09,15,04,37,14.10
2014,09,15,04,38,14.00
2014,09,15,04,39,14.00
2014,09,15,04,40,14.00
2014,09,15,04,41,14.00
2014,09,15,04,42,14.00
2014,09,15,04,43,14.00
2014,09,15,04,44,14.00
2014,09,15,04,45,13.90
2014,09,15,04,46,13.90
2014,09,15,04,47,13.90
2014,09,15,04,48,13.90
2014,09,15,04,49,13.90
2014,09,15,04,50,13.90
2014,09,15,04,51,13.90
2014,09,15,04,52,13.80
2014,09,15,04,53,13.80
2014,09,15,04,54,13.80
2014,09,15,04,55,13.80
2014,09,15,04,56,13.80
2014,09,15,04,57,13.80
2014,09,15,04,58,13.70
2014,09,15,04,59,13.70
2014,09,15,05,00,13.70
2014,09,15,05,01,13.70
2014,09,15,05,02,13.70
2014,09,15,05,03,13.70
2014,09,15,05,04,13.70
2014,09,15,05,05,13.70
2014,09,15,05,06,13.70
2014,09,15,05,07,13.60
2014,09,15,05,08,13.60
2014,09,15,05,09,13.60
2014,09,15,05,10,13.60
2014,09,15,05,11,13.60
2014,09,15,05,12,13.50
2014,09,15,05,13,13.50
2014,09,15,05,14,13.50
2014,09,15,05,15,13.50
2014,09,15,05,16,13.50
2014,09,15,05,17,13.40
2014,09,15,05,18,13.40
2014,09,15,05,19,13.40
2014,09,15,05,20,13.30
2014,09,15,05,21,13.30
2014,09,15,05,22,13.30
2014,09,15,05,23,13.30
2014,09,15,05,24,13.30
2014,09,15,05,25,13.30
2014,09,15,05,26,13.30
2014,09,15,05,27,13.30
2014,09,15,05,28,13.30
2014,09,15,05,29,13.30
2014,09,15,05,30,13.30
2014,09,15,05,31,13.30
2014,09,15,05,32,13.30
2014,09,15,05,33,13.30
2014,09,15,05,34,13.30
2014,09,15,05,35,13.30
2014,09,15,05,36,13.20
2014,09,15,05,37,13.20
2014,09,15,05,38,13.20
2014,09,15,05,39,13.20
2014,09,15,05,40,13.20
2014,09,15,05,41,13.20
2014,09,15,05,42,13.20
2014,09,15,05,43,13.20
2014,09,15,05,44,13.20
2014,09,15,05,45,13.20
2014,09,15,05,46,13.20
2014,09,15,05,47,13.20
2014,09,15,05,48,13.20
2014,09,15,05,49,13.20
2014,09,15,05,50,13.20
2014,09,15,05,51,13.20
2014,09,15,05,52,13.20
2014,09,15,05,53,13.20
2014,09,15,05,54,13.20
2014,09,15,05,55,13.20
2014,09,15,05,56,13.20
2014,09,15,05,57,13.20
2014,09,15,05,58,13.20
2014,09,15,05,59,13.20
2014,09,15,06,00,13.20
2014,09,15,06,01,13.20
2014,09,15,06,02,13.20
2014,09,15,06,03,13.20
2014,09,15,06,04,13.20
2014,09,15,06,05,13.20
2014,09,15,06,06,13.20
2014,09,15,06,07,13.20
2014,09,15,06,08,13.20
2014,09,15,06,09,13.20
2014,09,15,06,10,13.20
2014,09,15,06,11,13.20
2014,09,15,06,12,13.20
2014,09,15,06,13,13.20
2014,09,15,06,14,13.20
2014,09,15,06,15,13.20
2014,09,15,06,16,13.20
2014,09,15,06,17,13.20
2014,09,15,06,18,13.20
2014,09,15,06,19,13.20
2014,09,15,06,20,13.20
2014,09,15,06,21,13.20
2014,09,15,06,22,13.20
2014,09,15,06,23,13.20
2014,09,15,06,24,13.20
2014,09,15,06,25,13.10
2014,09,15,06,26,13.10
2014,09,15,06,27,13.10
2014,09,15,06,28,13.10
2014,09,15,06,29,13.10
2014,09,15,06,30,13.10
2014,09,15,06,31,13.10
2014,09,15,06,32,13.10
2014,09,15,06,33,13.10
2014,09,15,06,34,13.10
2014,09,15,06,35,13.10
2014,09,15,06,36,13.10
2014,09,15,06,37,13.00
2014,09,15,06,38,13.00
2014,09,15,06,39,13.00
2014,09,15,06,40,13.00
2014,09,15,06,41,13.00
2014,09,15,06,42,13.00
2014,09,15,06,43,13.00
2014,09,15,06,44,13.00
2014,09,15,06,45,12.90
2014,09,15,06,46,12.90
2014,09,15,06,47,12.90
2014,09,15,06,48,12.90
2014,09,15,06,49,12.90
2014,09,15,06,50,12.90
2014,09,15,06,51,12.90
2014,09,15,06,52,12.90
2014,09,15,06,53,12.90
2014,09,15,06,54,12.90
2014,09,15,06,55,12.90
2014,09,15,06,56,12.90
2014,09,15,06,57,12.90
2014,09,15,06,58,12.80
2014,09,15,06,59,12.80
2014,09,15,07,00,12.80
2014,09,15,07,01,12.80
2014,09,15,07,02,12.80
2014,09,15,07,03,12.80
2014,09,15,07,04,12.80
2014,09,15,07,05,12.80
2014,09,15,07,06,12.80
2014,09,15,07,07,12.80
2014,09,15,07,08,12.80
2014,09,15,07,09,12.80
2014,09,15,07,10,12.80
2014,09,15,07,11,12.80
2014,09,15,07,12,12.80
2014,09,15,07,13,12.80
2014,09,15,07,14,12.80
2014,09,15,07,15,12.80
2014,09,15,07,16,12.80
2014,09,15,07,17,12.80
2014,09,15,07,18,12.80
2014,09,15,07,19,12.80
2014,09,15,07,20,12.80
2014,09,15,07,21,12.80
2014,09,15,07,22,12.80
2014,09,15,07,23,12.80
2014,09,15,07,24,12.80
2014,09,15,07,25,12.80
2014,09,15,07,26,12.80
2014,09,15,07,27,12.80
2014,09,15,07,28,12.80
2014,09,15,07,29,12.80
2014,09,15,07,30,12.80
2014,09,15,07,31,12.80
2014,09,15,07,32,12.80
2014,09,15,07,33,12.80
2014,09,15,07,34,12.80
2014,09,15,07,35,12.80
2014,09,15,07,36,12.80
2014,09,15,07,37,12.80
2014,09,15,07,38,12.90
2014,09,15,07,39,12.90
2014,09,15,07,40,12.90
2014,09,15,07,41,12.90
2014,09,15,07,42,12.90
2014,09,15,07,43,12.90
2014,09,15,07,44,12.90
2014,09,15,07,45,13.00
2014,09,15,07,46,13.00
2014,09,15,07,47,13.00
2014,09,15,07,48,13.00
2014,09,15,07,49,13.00
2014,09,15,07,50,13.10
2014,09,15,07,51,13.10
2014,09,15,07,52,13.10
2014,09,15,07,53,13.10
2014,09,15,07,54,13.10
2014,09,15,07,55,13.20
2014,09,15,07,56,13.20
2014,09,15,07,57,13.20
2014,09,15,07,58,13.20
2014,09,15,07,59,13.20
2014,09,15,08,00,13.30
2014,09,15,08,01,13.30
2014,09,15,08,02,13.30
2014,09,15,08,03,13.30
2014,09,15,08,04,13.30
2014,09,15,08,05,13.30
2014,09,15,08,06,13.30
2014,09,15,08,07,13.40
2014,09,15,08,08,13.50
2014,09,15,08,09,13.50
2014,09,15,08,10,13.60
2014,09,15,08,11,13.60
2014,09,15,08,12,13.70
2014,09,15,08,13,13.70
2014,09,15,08,14,13.80
2014,09,15,08,15,13.80
2014,09,15,08,16,13.90
2014,09,15,08,17,13.90
2014,09,15,08,18,14.00
2014,09,15,08,19,14.10
2014,09,15,08,20,14.10
2014,09,15,08,21,14.20
2014,09,15,08,22,14.20
2014,09,15,08,23,14.20
2014,09,15,08,24,14.30
2014,09,15,08,25,14.40
2014,09,15,08,26,14.50
2014,09,15,08,27,14.60
2014,09,15,08,28,14.60
2014,09,15,08,29,14.70
2014,09,15,08,30,14.80
2014,09,15,08,31,14.90
2014,09,15,08,32,15.00
2014,09,15,08,33,15.10
2014,09,15,08,34,15.10
2014,09,15,08,35,15.20
2014,09,15,08,36,15.30
2014,09,15,08,37,15.30
2014,09,15,08,38,15.40
2014,09,15,08,39,15.50
2014,09,15,08,40,15.60
2014,09,15,08,41,15.60
2014,09,15,08,42,15.70
2014,09,15,08,43,15.80
2014,09,15,08,44,15.90
2014,09,15,08,45,16.00
2014,09,15,08,46,16.10
2014,09,15,08,47,16.20
2014,09,15,08,48,16.30
2014,09,15,08,49,16.40
2014,09,15,08,50,16.50
2014,09,15,08,51,16.60
2014,09,15,08,52,16.70
2014,09,15,08,53,16.70
2014,09,15,08,54,16.90
2014,09,15,08,55,17.00
2014,09,15,08,56,17.00
2014,09,15,08,57,17.20
2014,09,15,08,58,17.30
2014,09,15,08,59,17.30
2014,09,15,09,00,17.40
2014,09,15,09,01,17.50
2014,09,15,09,02,17.60
2014,09,15,09,03,17.70
2014,09,15,09,04,17.70
2014,09,15,09,05,17.80
2014,09,15,09,06,17.90
2014,09,15,09,07,17.90
2014,09,15,09,08,18.10
2014,09,15,09,09,18.20
2014,09,15,09,10,18.20
2014,09,15,09,11,18.30
2014,09,15,09,12,18.40
2014,09,15,09,13,18.50
2014,09,15,09,14,18.60
2014,09,15,09,15,18.70
2014,09,15,09,16,18.70
2014,09,15,09,17,18.70
2014,09,15,09,18,18.90
2014,09,15,09,19,19.00
2014,09,15,09,20,19.10
2014,09,15,09,21,19.20
2014,09,15,09,22,19.40
2014,09,15,09,23,19.50
2014,09,15,09,24,19.60
2014,09,15,09,25,19.70
2014,09,15,09,26,19.80
2014,09,15,09,27,19.80
2014,09,15,09,28,19.90
2014,09,15,09,29,20.00
2014,09,15,09,30,20.10
2014,09,15,09,31,20.20
2014,09,15,09,32,20.30
2014,09,15,09,33,20.40
2014,09,15,09,34,20.50
2014,09,15,09,35,20.50
2014,09,15,09,36,20.60
2014,09,15,09,37,20.70
2014,09,15,09,38,20.70
2014,09,15,09,39,20.80
2014,09,15,09,40,20.80
2014,09,15,09,41,20.90
2014,09,15,09,42,20.90
2014,09,15,09,43,21.00
2014,09,15,09,44,21.00
2014,09,15,09,45,21.00
2014,09,15,09,46,21.10
2014,09,15,09,47,21.10
2014,09,15,09,48,21.10
2014,09,15,09,49,21.10
2014,09,15,09,50,21.10
2014,09,15,09,51,21.10
2014,09,15,09,52,21.10
2014,09,15,09,53,21.10
2014,09,15,09,54,21.20
2014,09,15,09,55,21.30
2014,09,15,09,56,21.30
2014,09,15,09,57,21.30
2014,09,15,09,58,21.40
2014,09,15,09,59,21.40
2014,09,15,10,00,21.40
2014,09,15,10,01,21.50
2014,09,15,10,02,21.60
2014,09,15,10,03,21.60
2014,09,15,10,04,21.60
2014,09,15,10,05,21.60
2014,09,15,10,06,21.60
2014,09,15,10,07,21.50
2014,09,15,10,08,21.40
2014,09,15,10,09,21.40
2014,09,15,10,10,21.30
2014,09,15,10,11,21.30
2014,09,15,10,12,21.30
2014,09,15,10,13,21.30
2014,09,15,10,14,21.30
2014,09,15,10,15,21.20
2014,09,15,10,16,21.10
2014,09,15,10,17,21.10
2014,09,15,10,18,21.10
2014,09,15,10,19,21.20
2014,09,15,10,20,21.20
2014,09,15,10,21,21.20
2014,09,15,10,22,21.30
2014,09,15,10,23,21.20
2014,09,15,10,24,21.20
2014,09,15,10,25,21.20
2014,09,15,10,26,21.20
2014,09,15,10,27,21.30
2014,09,15,10,28,21.30
2014,09,15,10,29,21.30
2014,09,15,10,30,21.30
2014,09,15,10,31,21.30
2014,09,15,10,32,21.30
2014,09,15,10,33,21.30
2014,09,15,10,34,21.30
2014,09,15,10,35,21.30
2014,09,15,10,36,21.20
2014,09,15,10,37,21.20
2014,09,15,10,38,21.10
2014,09,15,10,39,21.10
2014,09,15,10,40,21.00
2014,09,15,10,41,20.90
2014,09,15,10,42,20.90
2014,09,15,10,43,21.00
2014,09,15,10,44,21.00
2014,09,15,10,45,21.10
2014,09,15,10,46,21.10
2014,09,15,10,47,21.30
2014,09,15,10,48,21.30
2014,09,15,10,49,21.30
2014,09,15,10,50,21.30
2014,09,15,10,51,21.40
2014,09,15,10,52,21.40
2014,09,15,10,53,21.40
2014,09,15,10,54,21.40
2014,09,15,10,55,21.50
2014,09,15,10,56,21.60
2014,09,15,10,57,21.60
2014,09,15,10,58,21.80
2014,09,15,10,59,21.90
2014,09,15,11,00,22.00
2014,09,15,11,01,22.10
2014,09,15,11,02,22.20
2014,09,15,11,03,22.40
2014,09,15,11,04,22.40
2014,09,15,11,05,22.50
2014,09,15,11,06,22.50
2014,09,15,11,07,22.50
2014,09,15,11,08,22.50
2014,09,15,11,09,22.50
2014,09,15,11,10,22.50
2014,09,15,11,11,22.50
2014,09,15,11,12,22.50
2014,09,15,11,13,22.50
2014,09,15,11,14,22.50
2014,09,15,11,15,22.50
2014,09,15,11,16,22.60
2014,09,15,11,17,22.70
2014,09,15,11,18,22.80
2014,09,15,11,19,22.80
2014,09,15,11,20,22.80
2014,09,15,11,21,22.90
2014,09,15,11,22,22.90
2014,09,15,11,23,22.90
2014,09,15,11,24,22.90
2014,09,15,11,25,22.90
2014,09,15,11,26,22.90
2014,09,15,11,27,23.00
2014,09,15,11,28,23.10
2014,09,15,11,29,23.10
2014,09,15,11,30,23.10
2014,09,15,11,31,22.90
2014,09,15,11,32,22.90
2014,09,15,11,33,22.80
2014,09,15,11,34,22.80
2014,09,15,11,35,22.80
2014,09,15,11,36,22.80
2014,09,15,11,37,22.80
2014,09,15,11,38,22.90
2014,09,15,11,39,23.00
2014,09,15,11,40,23.10
2014,09,15,11,41,23.20
2014,09,15,11,42,23.30
2014,09,15,11,43,23.30
2014,09,15,11,44,23.30
2014,09,15,11,45,23.30
2014,09,15,11,46,23.30
2014,09,15,11,47,23.30
2014,09,15,11,48,23.40
2014,09,15,11,49,23.60
2014,09,15,11,50,23.70
2014,09,15,11,51,23.80
2014,09,15,11,52,23.80
2014,09,15,11,53,23.80
2014,09,15,11,54,23.90
2014,09,15,11,55,23.90
2014,09,15,11,56,23.90
2014,09,15,11,57,23.90
2014,09,15,11,58,23.90
2014,09,15,11,59,23.80
2014,09,15,12,00,23.70
2014,09,15,12,01,23.60
2014,09,15,12,02,23.50
2014,09,15,12,03,23.30
2014,09,15,12,04,23.30
2014,09,15,12,05,23.30
2014,09,15,12,06,23.30
2014,09,15,12,07,23.20
2014,09,15,12,08,23.20
2014,09,15,12,09,23.20
2014,09,15,12,10,23.30
2014,09,15,12,11,23.30
2014,09,15,12,12,23.30
2014,09,15,12,13,23.30
2014,09,15,12,14,23.40
2014,09,15,12,15,23.50
2014,09,15,12,16,23.60
2014,09,15,12,17,23.70
2014,09,15,12,18,23.80
2014,09,15,12,19,23.90
2014,09,15,12,20,24.00
2014,09,15,12,21,24.10
2014,09,15,12,22,24.20
2014,09,15,12,23,24.20
2014,09,15,12,24,24.20
2014,09,15,12,25,24.30
2014,09,15,12,26,24.30
2014,09,15,12,27,24.30
2014,09,15,12,28,24.40
2014,09,15,12,29,24.30
2014,09,15,12,30,24.30
2014,09,15,12,31,24.40
2014,09,15,12,32,24.50
2014,09,15,12,33,24.60
2014,09,15,12,34,24.70
2014,09,15,12,35,24.70
2014,09,15,12,36,24.80
2014,09,15,12,37,24.90
2014,09,15,12,38,24.90
2014,09,15,12,39,24.90
2014,09,15,12,40,24.90
2014,09,15,12,41,25.00
2014,09,15,12,42,24.90
2014,09,15,12,43,24.90
2014,09,15,12,44,24.90
2014,09,15,12,45,24.90
2014,09,15,12,46,24.90
2014,09,15,12,47,25.00
2014,09,15,12,48,25.20
2014,09,15,12,49,25.30
2014,09,15,12,50,25.30
2014,09,15,12,51,25.40
2014,09,15,12,52,25.40
2014,09,15,12,53,25.20
2014,09,15,12,54,25.00
2014,09,15,12,55,24.90
2014,09,15,12,56,24.70
2014,09,15,12,57,24.40
2014,09,15,12,58,24.20
2014,09,15,12,59,24.00
2014,09,15,13,00,23.90
2014,09,15,13,01,23.70
2014,09,15,13,02,23.70
2014,09,15,13,03,23.70
2014,09,15,13,04,23.70
2014,09,15,13,05,23.60
2014,09,15,13,06,23.60
2014,09,15,13,07,23.60
2014,09,15,13,08,23.60
2014,09,15,13,09,23.70
2014,09,15,13,10,23.80
2014,09,15,13,11,23.80
2014,09,15,13,12,23.80
2014,09,15,13,13,23.70
2014,09,15,13,14,23.70
2014,09,15,13,15,23.70
2014,09,15,13,16,23.60
2014,09,15,13,17,23.60
2014,09,15,13,18,23.50
2014,09,15,13,19,23.40
2014,09,15,13,20,23.30
2014,09,15,13,21,23.30
2014,09,15,13,22,23.30
2014,09,15,13,23,23.30
2014,09,15,13,24,23.40
2014,09,15,13,25,23.50
2014,09,15,13,26,23.60
2014,09,15,13,27,23.70
2014,09,15,13,28,23.80
2014,09,15,13,29,24.00
2014,09,15,13,30,24.10
2014,09,15,13,31,24.40
2014,09,15,13,32,24.50
2014,09,15,13,33,24.80
2014,09,15,13,34,24.90
2014,09,15,13,35,25.10
2014,09,15,13,36,25.20
2014,09,15,13,37,25.30
2014,09,15,13,38,25.40
2014,09,15,13,39,25.40
2014,09,15,13,40,25.50
2014,09,15,13,41,25.60
2014,09,15,13,42,25.70
2014,09,15,13,43,25.80
2014,09,15,13,44,25.90
2014,09,15,13,45,25.90
2014,09,15,13,46,25.80
2014,09,15,13,47,25.80
2014,09,15,13,48,25.80
2014,09,15,13,49,25.90
2014,09,15,13,50,26.00
2014,09,15,13,51,26.10
2014,09,15,13,52,26.20
2014,09,15,13,53,26.20
2014,09,15,13,54,26.30
2014,09,15,13,55,26.50
2014,09,15,13,56,26.60
2014,09,15,13,57,26.70
2014,09,15,13,58,26.80
2014,09,15,13,59,27.00
2014,09,15,14,00,27.10
2014,09,15,14,01,27.20
2014,09,15,14,02,27.20
2014,09,15,14,03,27.20
2014,09,15,14,04,27.20
2014,09,15,14,05,27.20
2014,09,15,14,06,27.20
2014,09,15,14,07,27.20
2014,09,15,14,08,27.10
2014,09,15,14,09,27.10
2014,09,15,14,10,26.90
2014,09,15,14,11,26.90
2014,09,15,14,12,26.80
2014,09,15,14,13,26.90
2014,09,15,14,14,27.00
2014,09,15,14,15,27.10
2014,09,15,14,16,27.10
2014,09,15,14,17,27.20
2014,09,15,14,18,27.10
2014,09,15,14,19,26.90
2014,09,15,14,20,26.70
2014,09,15,14,21,26.60
2014,09,15,14,22,26.60
2014,09,15,14,23,26.70
2014,09,15,14,24,26.80
2014,09,15,14,25,26.80
2014,09,15,14,26,26.80
2014,09,15,14,27,26.70
2014,09,15,14,28,26.60
2014,09,15,14,29,26.60
2014,09,15,14,30,26.60
2014,09,15,14,31,26.60
2014,09,15,14,32,26.60
2014,09,15,14,33,26.70
2014,09,15,14,34,26.80
2014,09,15,14,35,26.80
2014,09,15,14,36,26.90
2014,09,15,14,37,27.00
2014,09,15,14,38,27.10
2014,09,15,14,39,27.10
2014,09,15,14,40,27.00
2014,09,15,14,41,26.90
2014,09,15,14,42,26.90
2014,09,15,14,43,26.80
2014,09,15,14,44,26.80
2014,09,15,14,45,26.80
2014,09,15,14,46,26.80
2014,09,15,14,47,26.90
2014,09,15,14,48,27.10
2014,09,15,14,49,27.20
2014,09,15,14,50,27.30
2014,09,15,14,51,27.30
2014,09,15,14,52,27.30
2014,09,15,14,53,27.30
2014,09,15,14,54,27.30
2014,09,15,14,55,27.30
2014,09,15,14,56,27.30
2014,09,15,14,57,27.30
2014,09,15,14,58,27.20
2014,09,15,14,59,27.20
2014,09,15,15,00,27.00
2014,09,15,15,01,26.90
2014,09,15,15,02,26.80
2014,09,15,15,03,26.80
2014,09,15,15,04,26.80
2014,09,15,15,05,26.80
2014,09,15,15,06,26.80
2014,09,15,15,07,26.80
2014,09,15,15,08,27.00
2014,09,15,15,09,27.10
2014,09,15,15,10,27.20
2014,09,15,15,11,27.30
2014,09,15,15,12,27.40
2014,09,15,15,13,27.40
2014,09,15,15,14,27.50
2014,09,15,15,15,27.60
2014,09,15,15,16,27.60
2014,09,15,15,17,27.60
2014,09,15,15,18,27.60
2014,09,15,15,19,27.60
2014,09,15,15,20,27.60
2014,09,15,15,21,27.60
2014,09,15,15,22,27.60
2014,09,15,15,23,27.60
2014,09,15,15,24,27.60
2014,09,15,15,25,27.60
2014,09,15,15,26,27.60
2014,09,15,15,27,27.60
2014,09,15,15,28,27.60
2014,09,15,15,29,27.70
2014,09,15,15,30,27.80
2014,09,15,15,31,27.90
2014,09,15,15,32,27.90
2014,09,15,15,33,27.90
2014,09,15,15,34,27.90
2014,09,15,15,35,28.00
2014,09,15,15,36,28.10
2014,09,15,15,37,28.20
2014,09,15,15,38,28.20
2014,09,15,15,39,28.30
2014,09,15,15,40,28.30
2014,09,15,15,41,28.30
2014,09,15,15,42,28.30
2014,09,15,15,43,28.30
2014,09,15,15,44,28.20
2014,09,15,15,45,28.10
2014,09,15,15,46,28.10
2014,09,15,15,47,28.00
2014,09,15,15,48,27.90
2014,09,15,15,49,27.80
2014,09,15,15,50,27.60
2014,09,15,15,51,27.50
2014,09,15,15,52,27.30
2014,09,15,15,53,27.10
2014,09,15,15,54,26.90
2014,09,15,15,55,26.80
2014,09,15,15,56,26.70
2014,09,15,15,57,26.60
2014,09,15,15,58,26.60
2014,09,15,15,59,26.50
2014,09,15,16,00,26.40
2014,09,15,16,01,26.40
2014,09,15,16,02,26.30
2014,09,15,16,03,26.30
2014,09,15,16,04,26.30
2014,09,15,16,05,26.20
2014,09,15,16,06,26.20
2014,09,15,16,07,26.20
2014,09,15,16,08,26.20
2014,09,15,16,09,26.20
2014,09,15,16,10,26.20
2014,09,15,16,11,26.20
2014,09,15,16,12,26.30
2014,09,15,16,13,26.50
2014,09,15,16,14,26.60
2014,09,15,16,15,26.90
2014,09,15,16,16,27.10
2014,09,15,16,17,27.20
2014,09,15,16,18,27.30
2014,09,15,16,19,27.50
2014,09,15,16,20,27.60
2014,09,15,16,21,27.80
2014,09,15,16,22,27.90
2014,09,15,16,23,27.90
2014,09,15,16,24,27.90
2014,09,15,16,25,27.90
2014,09,15,16,26,28.00
2014,09,15,16,27,28.00
2014,09,15,16,28,28.20
2014,09,15,16,29,28.30
2014,09,15,16,30,28.50
2014,09,15,16,31,28.60
2014,09,15,16,32,28.60
2014,09,15,16,33,28.60
2014,09,15,16,34,28.70
2014,09,15,16,35,28.80
2014,09,15,16,36,28.80
2014,09,15,16,37,28.90
2014,09,15,16,38,28.90
2014,09,15,16,39,29.00
2014,09,15,16,40,29.10
2014,09,15,16,41,29.20
2014,09,15,16,42,29.30
2014,09,15,16,43,29.30
2014,09,15,16,44,29.20
2014,09,15,16,45,29.10
2014,09,15,16,46,29.10
2014,09,15,16,47,29.00
2014,09,15,16,48,28.90
2014,09,15,16,49,29.00
2014,09,15,16,50,29.00
2014,09,15,16,51,28.90
2014,09,15,16,52,28.80
2014,09,15,16,53,28.50
2014,09,15,16,54,28.30
2014,09,15,16,55,28.20
2014,09,15,16,56,28.00
2014,09,15,16,57,27.80
2014,09,15,16,58,27.70
2014,09,15,16,59,27.60
2014,09,15,17,00,27.50
2014,09,15,17,01,27.40
2014,09,15,17,02,27.30
2014,09,15,17,03,27.30
2014,09,15,17,04,27.40
2014,09,15,17,05,27.50
2014,09,15,17,06,27.60
2014,09,15,17,07,27.60
2014,09,15,17,08,27.60
2014,09,15,17,09,27.70
2014,09,15,17,10,27.80
2014,09,15,17,11,28.00
2014,09,15,17,12,28.10
2014,09,15,17,13,28.10
2014,09,15,17,14,28.20
2014,09,15,17,15,28.20
2014,09,15,17,16,28.10
2014,09,15,17,17,28.00
2014,09,15,17,18,27.90
2014,09,15,17,19,27.90
2014,09,15,17,20,27.80
2014,09,15,17,21,27.80